TimeEDT,TemperatureF,Dew PointF,Humidity,Sea Level PressureIn,VisibilityMPH,Wind Direction,Wind SpeedMPH,Gust SpeedMPH,PrecipitationIn,Events,Conditions,WindDirDegrees,DateUTC
12:53 AM,71.1,66.9,87,30.23,10.0,Calm,Calm,-,N/A,,Scattered Clouds,0,2013-07-15 04:53:00
1:53 AM,71.1,66.9,87,30.23,10.0,Calm,Calm,-,N/A,,Clear,0,2013-07-15 05:53:00
2:53 AM,70.0,66.9,90,30.24,10.0,Calm,Calm,-,N/A,,Partly Cloudy,0,2013-07-15 06:53:00
3:53 AM,69.1,66.0,90,30.25,10.0,Calm,Calm,-,N/A,,Clear,0,2013-07-15 07:53:00
4:53 AM,68.0,64.9,90,30.26,10.0,Calm,Calm,-,N/A,,Clear,0,2013-07-15 08:53:00
5:53 AM,66.9,64.9,93,30.26,10.0,Calm,Calm,-,N/A,,Clear,0,2013-07-15 09:53:00
6:53 AM,66.9,64.9,93,30.27,10.0,Calm,Calm,-,0.00,,Clear,0,2013-07-15 10:53:00
7:53 AM,71.1,66.0,84,30.29,10.0,Calm,Calm,-,N/A,,Clear,0,2013-07-15 11:53:00
8:53 AM,75.0,66.0,73,30.30,10.0,SE,4.6,-,N/A,,Clear,130,2013-07-15 12:53:00
9:53 AM,78.1,64.9,64,30.30,10.0,South,5.8,-,N/A,,Clear,170,2013-07-15 13:53:00
10:53 AM,81.0,66.0,60,30.31,10.0,South,5.8,-,N/A,,Clear,170,2013-07-15 14:53:00
11:53 AM,82.0,66.0,58,30.31,10.0,South,6.9,-,N/A,,Clear,180,2013-07-15 15:53:00
12:53 PM,84.9,66.9,55,30.30,10.0,Variable,3.5,-,N/A,,Clear,0,2013-07-15 16:53:00
1:53 PM,84.9,66.0,53,30.29,10.0,NE,5.8,-,N/A,,Scattered Clouds,40,2013-07-15 17:53:00
2:53 PM,86.0,66.0,51,30.27,10.0,NE,3.5,-,N/A,,Partly Cloudy,40,2013-07-15 18:53:00
3:53 PM,88.0,66.9,49,30.26,10.0,ENE,6.9,-,N/A,,Scattered Clouds,70,2013-07-15 19:53:00
4:53 PM,87.1,64.9,48,30.25,10.0,SE,6.9,-,N/A,,Clear,140,2013-07-15 20:53:00
5:53 PM,86.0,66.9,53,30.24,10.0,ESE,6.9,-,N/A,,Mostly Cloudy,110,2013-07-15 21:53:00
6:53 PM,87.1,66.9,51,30.23,10.0,Calm,Calm,-,N/A,,Clear,0,2013-07-15 22:53:00
7:53 PM,84.0,68.0,58,30.23,10.0,East,4.6,-,N/A,,Clear,100,2013-07-15 23:53:00
8:53 PM,82.0,68.0,62,30.24,10.0,Calm,Calm,-,N/A,,Clear,0,2013-07-16 00:53:00
9:53 PM,78.1,69.1,74,30.26,10.0,Calm,Calm,-,N/A,,Clear,0,2013-07-16 01:53:00
10:53 PM,75.9,70.0,82,30.27,10.0,Calm,Calm,-,N/A,,Clear,0,2013-07-16 02:53:00
11:53 PM,73.9,70.0,87,30.28,10.0,Calm,Calm,-,N/A,,Clear,0,2013-07-16 03:53:00